Regional Weather Roundup
Issued by NWS Jackson, KY

Home | Current Version | Previous Version | Text Only | Print | Product List | Glossary Off
Versions: 1 2 3 4 5 6 7 8 9 10 11 12 13 14 15 16 17 18 19 20 21 22 23 24 25 26 27 28

000
ASUS43 KJKL 051710
RWRJKL

EAST KENTUCKY HOURLY WEATHER ROUNDUP
NATIONAL WEATHER SERVICE JACKSON KY
100 PM EDT THU MAY 05 2016

NOTE: "FAIR" INDICATES FEW OR NO CLOUDS BELOW 12,000 FEET WITH
NO SIGNIFICANT WEATHER AND/OR OBSTRUCTIONS TO VISIBILITY.

* THESE REPORTS ARE NOT UNDER NWS QUALITY CONTROL AND MAY NOT
  REPORT WEATHER SUCH AS PRECIPITATION AND FOG.

KYZ079-080-083-085-087-088-110-112-115-119-120-051800
...EASTERN KENTUCKY...

CITY           SKY/WX    TMP DP  RH WIND       PRES   REMARKS
JACKSON        LGT RAIN  47  41  80 VRB6      29.79S
LONDON         CLOUDY    50  39  66 N8        29.80R
SOMERSET*      CLOUDY    46  37  71 N7        29.85R
MONTICELLO*    CLOUDY    47  41  80 N17G24    29.85R
WILLIAMSBURG*  CLOUDY    48  46  93 N8        29.81R
MIDDLESBORO*   CLOUDY    48  43  82 N5        29.80S
HARLAN APT*    CLOUDY    48  37  66 W5        29.77F
HAZARD APT*    LGT RAIN  50  45  81 NE3       29.79S
BLACK MTN*       N/A     36  36 100 NW5         N/A  WCI  32
PIKE CO APT*   CLOUDY    48  38  68 NW7       29.77S
BIG SANDY APT* CLOUDY    50  39  65 NW7       29.78S
MOREHEAD APT*  CLOUDY    50  39  66 VRB6      29.83F
$$

KYZ035-036-041-042-044-050-067-078-099-051800
...CENTRAL KENTUCKY...

CITY           SKY/WX    TMP DP  RH WIND       PRES   REMARKS
MT STERLING*   CLOUDY    50  41  71 N7        29.85S
FLEMING/MASON* CLOUDY    50  36  58 N9        29.84S
DANVILLE*      CLOUDY    48  37  66 N9        29.86R
RICHMOND*      CLOUDY    48  39  71 N7        29.83R
LEXINGTON      CLOUDY    48  38  68 N9        29.85R
FRANKFORT      CLOUDY    51  37  58 VRB5      29.85S
LOUISVILLE     PTSUNNY   52  38  58 N16       29.89R
LEBANON*       PTSUNNY   46  39  76 NW10      29.87R
BOWLING GREEN  CLOUDY    54  39  57 NW13G20   29.90R
$$

KYZ091>093-OHZ055-061-077-WVZ005-015-034-035-042-051800
...SOUTHERN OHIO/WEST VIRGINIA...

CITY           SKY/WX    TMP DP  RH WIND       PRES   REMARKS
COVINGTON      CLOUDY    50  39  66 NW13      29.86R
COLUMBUS       CLOUDY    50  46  86 NW7       29.80S
DAYTON         CLOUDY    49  44  83 N10       29.85S HAZE
WILMINGTON     CLOUDY    47  41  80 NW12      29.83S
HUNTINGTON     CLOUDY    53  37  54 N9        29.78S
CHARLESTON     CLOUDY    50  39  66 VRB5      29.75F
PINEVILLE*     CLOUDY    47  36  67 MISG      29.79S
BECKLEY        CLOUDY    42  36  79 NW9       29.71F
$$

VAZ002-007-008-TNZ017-027-036-066-071-051800
...SOUTHWEST VIRGINIA/EAST TENNESSEE...

CITY           SKY/WX    TMP DP  RH WIND       PRES   REMARKS
WISE*          CLOUDY    43  34  70 NW6       29.75F
BRISTOL        CLOUDY    51  38  60 VRB6      29.75S
MORRISTOWN*    PTSUNNY   46  45  93 NE9       29.76S FOG
SEVIERVILLE*   PTSUNNY   52  39  62 W9        29.78S
KNOXVILLE      PTSUNNY   53  44  71 SW7       29.79S
OAK RIDGE      PTSUNNY   54  44  69 VRB6      29.79F
CROSSVILLE     RAIN      45  41  86 N10G18    29.82R FOG
NASHVILLE      PTSUNNY   55  39  54 N21G26    29.89R
$$

...KEY TO REMARKS...
VSB - VISIBILITY IN MILES
WCI - WIND CHILL INDEX
HX  - HEAT INDEX

$$




USA.gov is the U.S. government's official web portal to all federal, state and local government web resources and services.